#timestamp,LO_Frequency,Hit,StdDev 
1666429215.0,286047003.5,N
1666429215.9,286047003.5,N
1666429235.8,286047005.6,Y
1666429255.6,286047002.2,P
1666429275.4,286047002.8,P
1666429295.3,286047002.7,P
1666429315.1,286046999.8,N
1666429335.9,286047002.7,N
1666429355.7,286047002.5,N
1666429375.5,286047002.6,N
1666429395.4,286047001.8,N
1666429415.2,286047004.1,Y
1666429435.1,286047000.7,P
1666429436.0,286047000.7,N
1666429455.8,286047001.0,N
1666429475.6,286047000.0,N
1666429495.5,286047002.4,Y
1666429515.3,286047002.1,P
1666429535.1,286046999.9,N
1666429555.9,286046998.6,N
1666429575.7,286046996.7,N
1666429595.6,286046997.1,N
1666429615.4,286046999.2,N
1666429635.2,286047000.5,N
1666429655.1,286047000.5,N
1666429656.0,286047000.5,N
1666429675.8,286047000.4,N
1666429695.6,286047000.0,N
1666429715.5,286047002.2,N
1666429735.3,286047000.7,N
1666429755.2,286046998.9,N
1666429775.9,286047000.8,N
1666429795.7,286047000.5,N
1666429815.6,286047002.8,N
1666429835.4,286047000.1,N
1666429855.2,286047000.9,N
1666429875.1,286047000.6,N
1666429876.0,286047000.6,N
1666429895.8,286047000.3,N
1666429915.7,286047001.2,N
1666429935.5,286047000.3,N
1666429955.3,286047000.6,N
1666429975.2,286046999.3,N
1666429995.0,286046999.5,N
1666429995.9,286046999.5,N
1666430015.7,286046998.1,N
1666430035.6,286047000.7,N
1666430055.4,286047000.7,N
1666430075.3,286046998.5,N
1666430095.1,286046998.3,N
1666430096.0,286046998.3,N
1666430115.8,286047000.9,N
1666430135.7,286047000.3,N
1666430155.5,286046999.9,N
1666430175.4,286047000.3,N
1666430195.2,286047001.2,N
1666430215.0,286047000.6,N
1666430215.9,286047000.6,N
1666430235.8,286046998.8,N
1666430255.6,286047001.2,N
1666430275.4,286047000.3,N
1666430295.3,286047000.2,N
1666430315.1,286047001.9,N
1666430335.9,286047001.9,N
1666430355.7,286047001.7,N
1666430375.5,286047002.6,N
1666430395.4,286047001.7,N
1666430415.2,286047000.1,N
1666430435.0,286047001.1,N
1666430435.9,286047001.1,N
1666430455.8,286047000.9,N
1666430475.6,286047000.8,N
1666430495.5,286047000.8,N
1666430515.3,286046996.6,Y
1666430535.1,286046996.8,P
1666430555.9,286046999.5,N
1666430575.7,286046998.9,N
1666430595.6,286046999.6,N
1666430615.4,286046998.3,N
1666430635.2,286047001.1,N
1666430655.1,286047000.5,N
1666430656.0,286047000.5,N
1666430675.8,286047000.7,N
1666430695.6,286046998.5,N
1666430715.5,286046998.6,N
1666430735.3,286047000.9,N
1666430755.2,286047001.1,N
1666430775.9,286047000.7,N
1666430795.7,286047002.8,N
1666430815.6,286047002.8,N
1666430835.4,286047000.1,N
1666430855.3,286046998.3,N
1666430875.1,286046997.1,N
1666430876.0,286046997.1,N
1666430895.8,286046999.1,N
1666430915.7,286046996.5,N
1666430935.5,286046996.5,N
1666430955.3,286046998.1,N
1666430975.2,286046998.1,N
1666430995.0,286046999.2,N
1666430995.9,286046999.2,N
1666431015.8,286046999.1,N
1666431035.6,286046998.4,N
1666431055.4,286046998.9,N
1666431075.3,286046999.1,N
1666431095.1,286046995.4,N
1666431115.9,286046997.9,N
1666431135.7,286046997.1,N
1666431155.5,286047000.5,N
1666431175.4,286046998.1,N
1666431195.2,286046998.9,N
1666431215.0,286047000.9,N
1666431215.9,286047000.9,N
1666431235.8,286047000.4,N
1666431255.6,286046999.8,N
1666431275.5,286047001.3,N
1666431295.3,286047003.9,N
1666431315.1,286046999.8,N
1666431335.9,286047000.4,N
1666431355.7,286047000.8,N
1666431375.5,286046999.8,N
1666431395.4,286047002.0,N
1666431415.2,286047001.4,N
1666431435.1,286047003.8,N
1666431436.0,286047003.8,N
1666431455.8,286047006.0,N
1666431475.6,286047004.7,N
1666431495.5,286047006.0,N
1666431515.3,286047004.0,N
1666431535.1,286047001.7,N
1666431555.9,286047001.7,N
1666431575.7,286047003.3,N
1666431595.6,286047004.4,N
1666431615.4,286047001.7,N
1666431635.2,286047005.4,N
1666431655.1,286047004.1,N
1666431656.0,286047004.1,N
1666431675.8,286047003.4,N
1666431695.7,286047002.0,N
1666431715.5,286047002.0,N
1666431735.3,286047002.0,N
1666431755.2,286047003.9,N
1666431775.0,286047002.2,N
1666431775.9,286047002.2,N
1666431795.8,286047002.5,N
1666431815.6,286047004.0,N
1666431835.4,286047004.3,N
1666431855.3,286047003.1,N
1666431875.1,286047004.1,N
1666431895.8,286047001.5,N
1666431915.7,286047001.3,N
1666431935.5,286047004.3,Y
1666431955.4,286046998.2,P
1666431975.2,286046998.6,N
1666431995.0,286047000.1,N
1666431995.9,286047000.1,N
1666432015.8,286047002.8,N
1666432035.6,286047001.1,N
1666432055.4,286047001.2,N
1666432075.3,286046998.2,N
1666432095.1,286046998.6,N
1666432115.9,286046998.6,N
1666432135.7,286047001.0,N
1666432155.5,286047002.3,N
1666432175.4,286047000.9,N
1666432195.2,286046996.9,N
1666432215.1,286046997.0,N
1666432216.0,286046997.0,N
1666432235.8,286046999.4,N
1666432255.6,286046998.4,N
1666432275.5,286047000.6,N
1666432295.3,286046998.2,N
1666432315.2,286046998.7,N
1666432335.0,286046999.8,N
1666432335.9,286046999.8,N
1666432355.8,286047002.8,N
1666432375.6,286047000.5,N
1666432395.4,286047002.1,N
1666432415.3,286047002.2,N
1666432435.1,286047001.3,N
1666432455.8,286047004.4,N
1666432475.7,286047003.5,N
1666432495.5,286047001.7,N
1666432515.4,286047004.3,N
1666432535.2,286047001.9,N
1666432555.0,286047000.9,N
1666432555.9,286047000.9,N
1666432575.8,286047001.1,N
1666432595.6,286047000.3,N
1666432615.5,286047002.6,N
1666432635.3,286046999.7,N
1666432655.1,286047000.9,N
1666432675.9,286047000.0,N
1666432695.7,286047000.9,N
1666432715.6,286046999.1,N
1666432735.4,286046999.3,N
1666432755.2,286046998.1,N
1666432775.1,286047000.6,N
1666432776.0,286047000.6,N
1666432795.8,286046999.8,N
